TimePDT,TemperatureF,Dew PointF,Humidity,Sea Level PressureIn,VisibilityMPH,Wind Direction,Wind SpeedMPH,Gust SpeedMPH,PrecipitationIn,Events,Conditions,WindDirDegrees,DateUTC
12:51 AM,28.4,23.0,80,30.14,10.0,SW,4.6,-,N/A,,Overcast,230,2013-04-10 07:51:00
12:53 AM,28.9,23.0,78,30.08,10.0,SW,5.8,-,N/A,,Overcast,230,2013-04-10 07:53:00
1:53 AM,28.9,23.0,78,30.06,10.0,Variable,4.6,-,N/A,,Overcast,0,2013-04-10 08:53:00
2:53 AM,28.9,24.1,82,30.03,10.0,SW,4.6,-,N/A,,Overcast,220,2013-04-10 09:53:00
3:53 AM,28.9,24.1,82,30.01,10.0,SW,6.9,-,N/A,,Overcast,230,2013-04-10 10:53:00
4:53 AM,28.9,24.1,82,30.01,10.0,WSW,4.6,-,N/A,,Overcast,250,2013-04-10 11:53:00
5:53 AM,28.9,24.1,82,30.01,10.0,SSW,6.9,-,N/A,,Overcast,210,2013-04-10 12:53:00
6:53 AM,28.9,24.1,82,30.01,10.0,Variable,6.9,-,N/A,,Overcast,0,2013-04-10 13:53:00
7:53 AM,30.0,25.0,82,30.14,10.0,SSW,8.1,-,N/A,,Overcast,210,2013-04-10 14:53:00
8:49 AM,30.2,24.8,80,30.04,10.0,Variable,5.8,-,0.00,,Overcast,0,2013-04-10 15:49:00
8:53 AM,30.9,25.0,79,29.97,10.0,Variable,5.8,-,0.00,,Overcast,0,2013-04-10 15:53:00
9:34 AM,32.0,26.6,80,30.01,10.0,Variable,4.6,-,N/A,,Overcast,0,2013-04-10 16:34:00
10:53 AM,30.9,28.0,89,29.91,10.0,Variable,3.5,-,N/A,,Overcast,0,2013-04-10 17:53:00
11:53 AM,32.0,28.0,85,29.87,10.0,Variable,6.9,-,0.00,,Overcast,0,2013-04-10 18:53:00
12:13 PM,32.0,26.6,80,29.93,9.0,South,9.2,17.3,N/A,,Overcast,180,2013-04-10 19:13:00
12:53 PM,32.0,28.0,85,29.83,4.0,South,9.2,-,0.00,,Overcast,180,2013-04-10 19:53:00
1:03 PM,30.2,28.4,93,29.89,4.0,SSE,11.5,23.0,0.01,Rain,Light Freezing Rain,160,2013-04-10 20:03:00
1:13 PM,30.2,30.2,100,29.89,2.5,South,8.1,20.7,0.01,Snow,Light Snow,170,2013-04-10 20:13:00
1:20 PM,30.2,30.2,100,29.88,1.8,Variable,5.8,-,0.01,Snow,Light Snow,0,2013-04-10 20:20:00
1:32 PM,30.2,30.2,100,29.88,0.8,Variable,6.9,16.1,0.02,Snow,Light Snow,0,2013-04-10 20:32:00
1:53 PM,32.0,30.9,96,29.79,0.2,South,9.2,18.4,0.03,Fog-Snow,Light Snow,180,2013-04-10 20:53:00
2:53 PM,32.0,32.0,100,29.75,0.2,South,11.5,25.3,0.03,Fog-Snow,Light Snow,180,2013-04-10 21:53:00
3:07 PM,33.8,32.0,93,29.82,0.2,South,12.7,27.6,0.01,Fog-Snow,Light Snow,190,2013-04-10 22:07:00
3:45 PM,33.8,33.8,100,29.81,1.0,SW,13.8,31.1,0.04,Rain,Light Rain,230,2013-04-10 22:45:00
3:50 PM,33.8,33.8,100,29.81,2.5,SW,15.0,31.1,0.04,Rain,Light Rain,230,2013-04-10 22:50:00
3:53 PM,34.0,34.0,100,29.73,3.0,SW,12.7,26.5,0.04,Rain,Light Rain,230,2013-04-10 22:53:00
4:19 PM,35.6,33.8,93,29.81,2.0,West,9.2,23.0,0.00,Rain,Light Rain,270,2013-04-10 23:19:00
4:28 PM,35.6,33.8,93,29.81,6.0,West,9.2,16.1,0.00,Rain,Light Rain,260,2013-04-10 23:28:00
4:53 PM,34.0,34.0,100,29.73,6.0,WSW,9.2,25.3,0.00,Rain,Light Rain,250,2013-04-10 23:53:00
5:01 PM,33.8,33.8,100,29.81,2.0,WSW,9.2,19.6,0.01,Rain,Light Rain,250,2013-04-11 00:01:00
5:04 PM,33.8,33.8,100,29.81,0.8,WSW,10.4,19.6,0.01,Rain,Light Rain,240,2013-04-11 00:04:00
5:22 PM,33.8,33.8,100,29.81,1.5,West,11.5,33.4,0.03,Rain,Light Rain,260,2013-04-11 00:22:00
5:26 PM,33.8,33.8,100,29.81,4.0,WSW,12.7,33.4,0.03,Rain,Light Rain,250,2013-04-11 00:26:00
5:34 PM,33.8,33.8,100,29.81,10.0,West,8.1,25.3,0.03,,Overcast,260,2013-04-11 00:34:00
5:41 PM,33.8,33.8,100,29.82,10.0,WSW,13.8,28.8,0.03,,Overcast,250,2013-04-11 00:41:00
5:53 PM,35.1,33.1,92,29.73,10.0,West,9.2,24.2,0.03,,Overcast,260,2013-04-11 00:53:00
6:13 PM,33.8,33.8,100,29.82,10.0,West,11.5,25.3,N/A,,Overcast,260,2013-04-11 01:13:00
6:41 PM,33.8,32.0,93,29.83,10.0,WNW,12.7,35.7,0.00,,Overcast,290,2013-04-11 01:41:00
6:53 PM,34.0,32.0,92,29.75,10.0,WNW,8.1,33.4,0.00,,Overcast,300,2013-04-11 01:53:00
7:53 PM,34.0,32.0,92,29.78,10.0,Variable,4.6,25.3,0.00,,Overcast,0,2013-04-11 02:53:00
8:53 PM,33.1,30.9,92,29.81,2.0,WNW,12.7,27.6,0.02,Snow,Light Snow,300,2013-04-11 03:53:00
8:57 PM,32.0,32.0,100,29.89,1.2,NNW,9.2,27.6,0.01,Snow,Light Snow,330,2013-04-11 03:57:00
9:19 PM,30.2,30.2,100,29.91,0.2,NNW,12.7,31.1,0.04,Fog-Snow,Snow,330,2013-04-11 04:19:00
9:30 PM,30.2,30.2,100,29.91,0.5,NW,11.5,24.2,0.04,Fog-Snow,Light Snow,320,2013-04-11 04:30:00
9:53 PM,30.9,30.9,100,29.85,0.2,NW,13.8,25.3,0.04,Fog,Light Freezing Fog,320,2013-04-11 04:53:00
10:53 PM,32.0,32.0,100,29.86,0.2,Variable,4.6,-,N/A,Fog,Fog,0,2013-04-11 05:53:00
11:22 PM,32.0,32.0,100,29.95,1.0,Variable,4.6,17.3,N/A,,Overcast,0,2013-04-11 06:22:00
11:24 PM,32.0,32.0,100,29.95,2.0,Variable,6.9,17.3,N/A,,Overcast,0,2013-04-11 06:24:00
11:28 PM,32.0,32.0,100,29.94,1.2,Variable,4.6,-,N/A,,Overcast,0,2013-04-11 06:28:00
11:36 PM,32.0,32.0,100,29.95,0.5,NW,5.8,-,N/A,Fog,Fog,320,2013-04-11 06:36:00
11:46 PM,32.0,32.0,100,29.95,0.8,Variable,4.6,-,N/A,,Overcast,0,2013-04-11 06:46:00
11:53 PM,30.9,30.9,100,29.87,0.8,Variable,4.6,19.6,N/A,,Overcast,0,2013-04-11 06:53:00
11:58 PM,32.0,32.0,100,29.95,1.0,Variable,6.9,19.6,N/A,,Overcast,0,2013-04-11 06:58:00